Havre, MT

2:14 AM MDT on August 18, 2017 (GMT -0600)
Havre City-County

Weather History for KHVR - June, 2013

Change the Weather History Date:

Wednesday, June 26, 2013

  Actual Average Record
Temperature  
Mean Temperature 65 °F 65 °F  
Max Temperature 78 °F 79 °F 101 °F (1910)
Min Temperature 52 °F 50 °F 35 °F (1985)
Degree Days  
Heating Degree Days 0 3  
Month to date heating degree days 113 124  
Since 1 June heating degree days 113 124  
Since 1 July heating degree days 8018 8212  
Cooling Degree Days 0 2  
Month to date cooling degree days 20 37  
Year to date cooling degree days 27 48  
Since 1 June cooling degree days 20 37  
Growing Degree Days 16 (Base 50)    
Moisture  
Dew Point 46 °F    
Average Humidity 56    
Maximum Humidity 83    
Minimum Humidity 28    
Precipitation  
Precipitation 0.00 in 0.07 in 2.02 in (1959)
Month to date precipitation 3.89 1.91  
Year to date precipitation 11.21 5.64  
Snow  
Snow 0.00 in 0.00 in 0.00 in (1999)
Month to date snowfall 0.0 0.5  
Since 1 June snowfall 0.0 0.5  
Since 1 July snowfall 50.6 39.5  
Snow Depth 0.00 in    
Sea Level Pressure  
Sea Level Pressure 29.86 in    
Wind  
Wind Speed 15 mph (WSW)    
Max Wind Speed 30 mph    
Max Gust Speed 39 mph    
Visibility 10 miles    
Events      
T = Trace of Precipitation, MM = Missing Value Source: NWS Daily Summary

Daily Weather History Graph

Daily Weather History Graph

Search for Another Location

Airport or City:

Trip Planner

Search our weather history database for the weather conditions in past years. The results will help you decide how hot, cold, wet, or windy it might be!

Date:

Astronomy

Jun. 26, 2013 Rise Set
Actual Time 5:18 AM MDT 9:25 PM MDT
Civil Twilight 4:36 AM MDT 10:07 PM MDT
Nautical Twilight 3:37 AM MDT 11:06 PM MDT
Astronomical Twilight 1:40 AM MDT 1:01 AM MDT
Moon 11:26 PM MDT (6/26) 9:34 AM MDT (6/26)
Length of Visible Light 17h 30m
Length of Day
16h 06m
Waning Gibbous, 85% of the Moon is Illuminated
Jun 26
Waning Gibbous
Jun 29
Last Quarter
Jul 8
New
Jul 15
First Quarter
Jul 22
Full

Hourly Weather History & Observations

Time (MDT) Temp. Dew Point Humidity Pressure Visibility Wind Dir Wind Speed Gust Speed Precip Events Conditions
12:53 AM 59.0 °F 51.1 °F 75% 29.75 in 10.0 mi SW 4.6 mph - N/A   Clear
1:53 AM 57.9 °F 51.1 °F 78% 29.75 in 10.0 mi SSW 8.1 mph - N/A   Clear
2:53 AM 57.9 °F 51.1 °F 78% 29.76 in 10.0 mi SSW 8.1 mph - N/A   Clear
3:53 AM 59.0 °F 48.0 °F 67% 29.77 in 10.0 mi SSW 11.5 mph - N/A   Clear
4:53 AM 54.0 °F 48.0 °F 80% 29.80 in 10.0 mi WSW 5.8 mph - N/A   Clear
5:53 AM 54.0 °F 48.0 °F 80% 29.80 in 10.0 mi SSW 12.7 mph - N/A   Clear
6:53 AM 59.0 °F 48.9 °F 69% 29.82 in 10.0 mi SW 13.8 mph - N/A   Clear
7:53 AM 63.0 °F 50.0 °F 63% 29.83 in 10.0 mi WSW 12.7 mph - N/A   Clear
8:53 AM 68.0 °F 46.0 °F 45% 29.84 in 10.0 mi WSW 20.7 mph 28.8 mph N/A   Clear
9:53 AM 70.0 °F 46.0 °F 42% 29.86 in 10.0 mi WSW 18.4 mph 25.3 mph N/A   Clear
10:53 AM 73.0 °F 43.0 °F 34% 29.85 in 10.0 mi WSW 24.2 mph 34.5 mph N/A   Clear
11:53 AM 75.0 °F 43.0 °F 32% 29.86 in 10.0 mi West 21.9 mph 32.2 mph N/A   Partly Cloudy
12:53 PM 77.0 °F 44.1 °F 31% 29.87 in 10.0 mi West 20.7 mph 25.3 mph N/A   Scattered Clouds
1:53 PM 75.0 °F 46.0 °F 36% 29.88 in 10.0 mi West 19.6 mph 26.5 mph N/A   Scattered Clouds
2:53 PM 75.9 °F 44.1 °F 32% 29.88 in 10.0 mi WSW 20.7 mph 27.6 mph N/A   Clear
3:53 PM 77.0 °F 45.0 °F 32% 29.88 in 10.0 mi West 19.6 mph 31.1 mph N/A   Scattered Clouds
4:53 PM 78.1 °F 43.0 °F 29% 29.88 in 10.0 mi West 19.6 mph 25.3 mph N/A   Clear
5:53 PM 77.0 °F 43.0 °F 30% 29.89 in 10.0 mi West 20.7 mph 28.8 mph N/A   Clear
6:53 PM 75.9 °F 46.0 °F 35% 29.89 in 10.0 mi West 12.7 mph - N/A   Clear
7:53 PM 73.9 °F 46.9 °F 38% 29.89 in 10.0 mi West 10.4 mph - N/A   Clear
8:53 PM 70.0 °F 45.0 °F 41% 29.91 in 10.0 mi West 11.5 mph - N/A   Clear
9:53 PM 66.0 °F 44.1 °F 45% 29.93 in 10.0 mi WNW 10.4 mph - N/A   Clear
10:53 PM 57.0 °F 46.0 °F 67% 29.96 in 10.0 mi SW 8.1 mph - N/A   Clear
11:53 PM 57.9 °F 46.0 °F 65% 29.97 in 10.0 mi SSW 10.4 mph - N/A   Clear